Location: Be Tobo
(6.6442°N, 10.6239°W)
Time: 01:31:05
(UTC+00:00)

Cosmos 1939 Rocket - Pass Details

Date: 18 September 2020
Orbit: 531 x 585 km, 97.4° (Epoch: 21 October)

Event Time Altitude Azimuth Distance (km) Brightness Sun altitude
Rises 19:31:30 0° 176° (S) 2,744 6.3 -13.5°
Reaches altitude 10° 19:33:39 10° 180° (S) 1,856 5.5 -14.0°
Maximum altitude 19:37:35 57° 259° (W) 675 3.6 -15.0°
Drops below altitude 10° 19:41:36 10° 338° (NNW) 1,881 5.9 -16.0°
Sets 19:43:48 0° 343° (NNW) 2,784 6.7 -16.6°
